TimeAKST,TemperatureF,Dew PointF,Humidity,Sea Level PressureIn,VisibilityMPH,Wind Direction,Wind SpeedMPH,Gust SpeedMPH,PrecipitationIn,Events,Conditions,WindDirDegrees,DateUTC
12:53 AM,12.9,10.0,88,30.11,10.0,NW,8.1,-,N/A,,Clear,320,2013-11-25 09:53:00
1:53 AM,12.0,9.0,88,30.10,10.0,NW,6.9,-,N/A,,Clear,310,2013-11-25 10:53:00
3:53 AM,12.0,10.0,92,30.08,10.0,NW,3.5,-,N/A,,Clear,320,2013-11-25 12:53:00
4:53 AM,10.0,7.0,87,30.07,10.0,Calm,Calm,-,N/A,,Clear,0,2013-11-25 13:53:00
5:53 AM,6.1,5.0,95,30.09,10.0,Calm,Calm,-,N/A,,Clear,0,2013-11-25 14:53:00
6:53 AM,3.9,1.0,88,30.06,10.0,Calm,Calm,-,N/A,,Clear,0,2013-11-25 15:53:00
7:53 AM,3.0,-0.0,87,30.04,10.0,Calm,Calm,-,N/A,,Clear,0,2013-11-25 16:53:00
8:53 AM,5.0,1.0,84,30.03,10.0,Calm,Calm,-,N/A,,Clear,0,2013-11-25 17:53:00
9:53 AM,6.1,3.0,87,30.02,10.0,Calm,Calm,-,N/A,,Clear,0,2013-11-25 18:53:00
10:53 AM,9.0,6.1,88,29.99,10.0,Calm,Calm,-,N/A,,Partly Cloudy,0,2013-11-25 19:53:00
11:53 AM,10.9,7.0,84,29.96,10.0,Calm,Calm,-,N/A,,Partly Cloudy,0,2013-11-25 20:53:00
12:53 PM,10.9,8.1,88,29.96,10.0,SSE,3.5,-,N/A,,Mostly Cloudy,150,2013-11-25 21:53:00
1:53 PM,12.9,9.0,84,29.92,10.0,WNW,5.8,-,N/A,,Clear,290,2013-11-25 22:53:00
2:53 PM,10.0,7.0,87,29.92,10.0,Calm,Calm,-,N/A,,Clear,0,2013-11-25 23:53:00
3:53 PM,12.0,8.1,84,29.90,10.0,Calm,Calm,-,N/A,,Overcast,0,2013-11-26 00:53:00
4:53 PM,10.9,8.1,88,29.90,10.0,Calm,Calm,-,N/A,,Mostly Cloudy,0,2013-11-26 01:53:00
5:53 PM,10.9,7.0,84,29.89,10.0,Calm,Calm,-,N/A,,Mostly Cloudy,0,2013-11-26 02:53:00
6:53 PM,10.0,7.0,87,29.91,10.0,NNE,4.6,-,N/A,,Mostly Cloudy,30,2013-11-26 03:53:00
7:53 PM,10.9,8.1,88,29.91,10.0,NNE,4.6,-,N/A,,Overcast,20,2013-11-26 04:53:00
8:53 PM,10.0,7.0,87,29.92,10.0,North,3.5,-,N/A,,Overcast,10,2013-11-26 05:53:00
9:53 PM,8.1,5.0,87,29.93,10.0,Calm,Calm,-,N/A,,Overcast,0,2013-11-26 06:53:00
10:53 PM,9.0,5.0,84,29.94,10.0,NW,3.5,-,N/A,,Overcast,320,2013-11-26 07:53:00
11:53 PM,6.1,3.0,87,29.96,10.0,Calm,Calm,-,N/A,,Overcast,0,2013-11-26 08:53:00